| time (UTC) | temp F | wind direction | speed MPH | gust MPH | rain 1hr in | rain 24hr in | rain mn in | humidity % | barometer mb |
| 20260507070328 | 55 | 343 | 2.0 | 3.0 | 0.01 | 0.25 | 0.01 | 81 | 1010.2 |
| 20260507065833 | 56 | 343 | 2.0 | 5.0 | 0.01 | 0.25 | 0.01 | 81 | 1010.2 |
| 20260507065336 | 55 | 343 | 2.0 | 5.0 | 0.01 | 0.25 | 0.01 | 80 | 1010.2 |
| 20260507064821 | 55 | 319 | 1.0 | 3.0 | 0.01 | 0.25 | 0.01 | 81 | 1010.3 |
| 20260507064348 | 56 | 319 | 1.0 | 3.0 | 0.01 | 0.25 | 0.01 | 81 | 1010.3 |
| 20260507063832 | 56 | 319 | 2.0 | 3.0 | 0.01 | 0.25 | 0.01 | 81 | 1010.4 |
| 20260507063335 | 56 | 319 | 1.0 | 2.0 | 0.01 | 0.25 | 0.01 | 81 | 1010.4 |
| 20260507062843 | 56 | 319 | 1.0 | 3.0 | 0.01 | 0.25 | 0.01 | 81 | 1010.3 |
| 20260507062327 | 56 | 319 | 1.0 | 5.0 | 0.00 | 0.24 | 0.00 | 81 | 1010.3 |
| 20260507061831 | 56 | 319 | 2.0 | 5.0 | 0.00 | 0.24 | 0.00 | 80 | 1010.2 |
| 20260507061336 | 56 | 307 | 3.0 | 4.0 | 0.00 | 0.24 | 0.00 | 79 | 1010.3 |
| 20260507060823 | 57 | 307 | 2.0 | 4.0 | 0.00 | 0.24 | 0.00 | 78 | 1010.2 |
| 20260507060331 | 57 | 307 | 2.0 | 4.0 | 0.00 | 0.24 | 0.00 | 78 | 1010.4 |
| 20260507055836 | 57 | 307 | 2.0 | 4.0 | 0.00 | 0.24 | 0.00 | 77 | 1010.3 |
| 20260507055339 | 57 | 320 | 2.0 | 5.0 | 0.00 | 0.24 | 0.00 | 77 | 1010.1 |
| 20260507054843 | 57 | 320 | 2.0 | 6.0 | 0.00 | 0.24 | 0.00 | 77 | 1010.1 |
| 20260507054346 | 57 | 323 | 3.0 | 6.0 | 0.00 | 0.24 | 0.00 | 76 | 1009.9 |
| 20260507053833 | 57 | 330 | 4.0 | 6.0 | 0.00 | 0.24 | 0.00 | 76 | 1009.9 |
| 20260507053357 | 57 | 327 | 3.0 | 9.0 | 0.00 | 0.24 | 0.00 | 76 | 1009.9 |
| 20260507052841 | 57 | 325 | 5.0 | 10.0 | 0.00 | 0.24 | 0.00 | 76 | 1010.0 |
| 20260507052324 | 57 | 307 | 6.0 | 10.0 | 0.00 | 0.24 | 0.00 | 75 | 1010.1 |
| 20260507051829 | 57 | 346 | 4.0 | 8.0 | 0.00 | 0.24 | 0.00 | 75 | 1009.8 |
| 20260507051334 | 57 | 329 | 5.0 | 9.0 | 0.00 | 0.24 | 0.00 | 75 | 1009.8 |
| 20260507050842 | 58 | 355 | 4.0 | 9.0 | 0.00 | 0.24 | 0.00 | 75 | 1009.8 |
| 20260507050345 | 58 | 342 | 4.0 | 10.0 | 0.00 | 0.24 | 0.00 | 75 | 1009.8 |
| 20260507045831 | 58 | 333 | 6.0 | 10.0 | 0.00 | 0.24 | 0.00 | 75 | 1009.8 |
| 20260507045358 | 58 | 342 | 5.0 | 9.0 | 0.00 | 0.24 | 0.00 | 76 | 1009.9 |
| 20260507044842 | 58 | 325 | 5.0 | 10.0 | 0.00 | 0.24 | 0.00 | 77 | 1010.1 |
| 20260507044326 | 58 | 323 | 4.0 | 10.0 | 0.00 | 0.24 | 0.00 | 76 | 1009.9 |
| 20260507043832 | 58 | 342 | 6.0 | 10.0 | 0.00 | 0.24 | 0.00 | 76 | 1009.9 |
| 20260507043340 | 58 | 346 | 4.0 | 11.0 | 0.00 | 0.24 | 0.00 | 76 | 1009.8 |
| 20260507042825 | 58 | 334 | 5.0 | 10.0 | 0.00 | 0.24 | 0.00 | 77 | 1009.9 |
| 20260507042328 | 58 | 336 | 6.0 | 10.0 | 0.00 | 0.24 | 0.00 | 77 | 1010.1 |
| 20260507041833 | 58 | 348 | 4.0 | 12.0 | 0.00 | 0.24 | 0.00 | 77 | 1010.1 |
| 20260507041320 | 58 | 336 | 6.0 | 14.0 | 0.00 | 0.24 | 0.00 | 76 | 1009.9 |
| 20260507040848 | 58 | 317 | 9.0 | 14.0 | 0.00 | 0.24 | 0.00 | 78 | 1009.9 |
| 20260507040332 | 58 | 322 | 3.0 | 6.0 | 0.00 | 0.24 | 0.00 | 78 | 1009.9 |
| 20260507035855 | 58 | 335 | 2.0 | 6.0 | 0.00 | 0.24 | 0.00 | 77 | 1010.0 |
| 20260507035338 | 58 | 319 | 3.0 | 7.0 | 0.00 | 0.24 | 0.24 | 77 | 1010.4 |
| 20260507034842 | 58 | 331 | 3.0 | 7.0 | 0.00 | 0.24 | 0.24 | 78 | 1010.4 |
| 20260507034327 | 58 | 342 | 2.0 | 4.0 | 0.00 | 0.24 | 0.24 | 78 | 1010.1 |
| 20260507033831 | 58 | 20 | 2.0 | 5.0 | 0.00 | 0.24 | 0.24 | 77 | 1009.8 |
| 20260507033356 | 58 | 355 | 1.0 | 5.0 | 0.00 | 0.24 | 0.24 | 77 | 1009.6 |
| 20260507032840 | 58 | 345 | 3.0 | 6.0 | 0.00 | 0.24 | 0.24 | 78 | 1009.6 |
| 20260507032343 | 58 | 355 | 4.0 | 6.0 | 0.00 | 0.24 | 0.24 | 79 | 1009.8 |
| 20260507031828 | 58 | 332 | 2.0 | 5.0 | 0.00 | 0.24 | 0.24 | 79 | 1009.8 |
| 20260507031352 | 58 | 347 | 3.0 | 9.0 | 0.00 | 0.24 | 0.24 | 78 | 1009.9 |
| 20260507030836 | 58 | 344 | 4.0 | 9.0 | 0.00 | 0.24 | 0.24 | 79 | 1009.8 |
| 20260507030401 | 58 | 327 | 5.0 | 8.0 | 0.00 | 0.24 | 0.24 | 79 | 1010.0 |
| 20260507025828 | 58 | 344 | 5.0 | 11.0 | 0.00 | 0.24 | 0.24 | 79 | 1010.0 |
| 20260507025351 | 58 | 13 | 5.0 | 11.0 | 0.00 | 0.24 | 0.24 | 79 | 1009.9 |
| 20260507024838 | 59 | 11 | 7.0 | 11.0 | 0.00 | 0.24 | 0.24 | 79 | 1010.0 |
| 20260507024343 | 59 | 335 | 5.0 | 11.0 | 0.00 | 0.24 | 0.24 | 80 | 1010.0 |
| 20260507023827 | 59 | 335 | 6.0 | 11.0 | 0.00 | 0.24 | 0.24 | 80 | 1009.5 |
| 20260507023330 | 59 | 346 | 4.0 | 11.0 | 0.00 | 0.24 | 0.24 | 80 | 1009.5 |
| 20260507022834 | 59 | 331 | 5.0 | 10.0 | 0.00 | 0.24 | 0.24 | 80 | 1009.4 |
| 20260507022336 | 59 | 345 | 4.0 | 10.0 | 0.00 | 0.24 | 0.24 | 80 | 1009.4 |
| 20260507021840 | 59 | 331 | 5.0 | 11.0 | 0.00 | 0.24 | 0.24 | 80 | 1009.3 |
| 20260507021323 | 59 | 344 | 5.0 | 15.0 | 0.00 | 0.24 | 0.24 | 80 | 1009.3 |
| 20260507020828 | 60 | 360 | 6.0 | 15.0 | 0.00 | 0.24 | 0.24 | 80 | 1009.2 |
| 20260507020355 | 60 | 315 | 7.0 | 13.0 | 0.00 | 0.24 | 0.24 | 80 | 1009.4 |
| 20260507015825 | 60 | 328 | 10.0 | 18.0 | 0.00 | 0.24 | 0.24 | 80 | 1009.1 |
| 20260507015348 | 60 | 5 | 6.0 | 18.0 | 0.00 | 0.24 | 0.24 | 80 | 1009.2 |
| 20260507014830 | 60 | 5 | 11.0 | 19.0 | 0.00 | 0.24 | 0.24 | 80 | 1009.0 |
| 20260507014334 | 60 | 310 | 12.0 | 19.0 | 0.00 | 0.24 | 0.24 | 80 | 1008.7 |
| 20260507013838 | 60 | 306 | 14.0 | 17.0 | 0.00 | 0.24 | 0.24 | 80 | 1009.1 |
| 20260507013321 | 60 | 329 | 14.0 | 17.0 | 0.00 | 0.24 | 0.24 | 80 | 1009.1 |
| 20260507012827 | 60 | 336 | 7.0 | 12.0 | 0.00 | 0.24 | 0.24 | 80 | 1009.0 |
| 20260507012334 | 61 | 314 | 9.0 | 12.0 | 0.00 | 0.24 | 0.24 | 79 | 1009.3 |
| 20260507011842 | 61 | 345 | 6.0 | 10.0 | 0.00 | 0.24 | 0.24 | 79 | 1009.4 |
| 20260507011327 | 61 | 360 | 5.0 | 11.0 | 0.00 | 0.24 | 0.24 | 78 | 1009.5 |
| 20260507010831 | 62 | 350 | 7.0 | 11.0 | 0.00 | 0.24 | 0.24 | 77 | 1009.3 |
| 20260507010335 | 62 | 342 | 5.0 | 7.0 | 0.00 | 0.24 | 0.24 | 77 | 1009.1 |
| 20260507005826 | 62 | 13 | 2.0 | 6.0 | 0.00 | 0.24 | 0.24 | 76 | 1009.3 |
| 20260507005348 | 62 | 31 | 2.0 | 6.0 | 0.00 | 0.24 | 0.24 | 77 | 1009.5 |
| 20260507004831 | 62 | 351 | 3.0 | 6.0 | 0.00 | 0.24 | 0.24 | 78 | 1009.6 |
| 20260507004354 | 62 | 14 | 3.0 | 8.0 | 0.00 | 0.24 | 0.24 | 78 | 1009.5 |
| 20260507003840 | 62 | 327 | 5.0 | 10.0 | 0.00 | 0.24 | 0.24 | 77 | 1009.5 |
| 20260507003324 | 62 | 346 | 5.0 | 12.0 | 0.00 | 0.24 | 0.24 | 78 | 1009.3 |
| 20260507002827 | 62 | 317 | 6.0 | 12.0 | 0.00 | 0.24 | 0.24 | 78 | 1009.1 |
| 20260507002330 | 63 | 298 | 7.0 | 12.0 | 0.00 | 0.24 | 0.24 | 78 | 1009.0 |
| 20260507001834 | 63 | 320 | 7.0 | 12.0 | 0.00 | 0.24 | 0.24 | 78 | 1009.0 |
| 20260507001401 | 63 | 327 | 6.0 | 11.0 | 0.00 | 0.24 | 0.24 | 78 | 1008.7 |
| 20260507000904 | 63 | 310 | 6.0 | 11.0 | 0.00 | 0.24 | 0.24 | 78 | 1008.6 |
| 20260507000328 | 63 | 286 | 6.0 | 11.0 | 0.00 | 0.24 | 0.24 | 78 | 1008.6 |
| 20260506235854 | 63 | 296 | 6.0 | 11.0 | 0.00 | 0.24 | 0.24 | 78 | 1008.5 |
| 20260506235335 | 63 | 300 | 7.0 | 10.0 | 0.00 | 0.24 | 0.24 | 78 | 1008.5 |
| 20260506234839 | 64 | 301 | 6.0 | 9.0 | 0.00 | 0.24 | 0.24 | 78 | 1008.4 |
| 20260506234346 | 64 | 296 | 6.0 | 9.0 | 0.00 | 0.24 | 0.24 | 78 | 1008.2 |
| 20260506233848 | 64 | 305 | 6.0 | 9.0 | 0.00 | 0.24 | 0.24 | 78 | 1008.1 |
| 20260506233351 | 64 | 299 | 5.0 | 10.0 | 0.00 | 0.24 | 0.24 | 79 | 1008.1 |
| 20260506232837 | 64 | 284 | 5.0 | 10.0 | 0.00 | 0.24 | 0.24 | 79 | 1007.9 |
| 20260506232343 | 64 | 287 | 6.0 | 10.0 | 0.00 | 0.24 | 0.24 | 80 | 1007.8 |
| 20260506231827 | 65 | 301 | 5.0 | 10.0 | 0.00 | 0.24 | 0.24 | 81 | 1007.5 |
| 20260506231330 | 65 | 355 | 6.0 | 10.0 | 0.00 | 0.24 | 0.24 | 81 | 1007.6 |
| 20260506230833 | 65 | 312 | 6.0 | 10.0 | 0.00 | 0.24 | 0.24 | 81 | 1007.7 |
| 20260506230337 | 65 | 317 | 6.0 | 12.0 | 0.00 | 0.24 | 0.24 | 81 | 1007.5 |
| 20260506225841 | 65 | 322 | 6.0 | 12.0 | 0.00 | 0.24 | 0.24 | 81 | 1007.5 |
| 20260506225343 | 65 | 334 | 5.0 | 10.0 | 0.00 | 0.24 | 0.24 | 83 | 1007.6 |
| 20260506224827 | 65 | 329 | 4.0 | 10.0 | 0.00 | 0.24 | 0.24 | 84 | 1007.6 |
| 20260506224330 | 66 | 337 | 5.0 | 10.0 | 0.00 | 0.24 | 0.24 | 85 | 1007.5 |
| 20260506223834 | 66 | 294 | 7.0 | 10.0 | 0.00 | 0.24 | 0.24 | 84 | 1007.4 |
| 20260506223322 | 66 | 323 | 5.0 | 7.0 | 0.00 | 0.24 | 0.24 | 86 | 1007.4 |
| 20260506222849 | 67 | 304 | 5.0 | 7.0 | 0.00 | 0.24 | 0.24 | 88 | 1007.1 |
| 20260506222350 | 67 | 292 | 4.0 | 5.0 | 0.00 | 0.24 | 0.24 | 90 | 1007.0 |
| 20260506221833 | 67 | 272 | 4.0 | 5.0 | 0.00 | 0.24 | 0.24 | 90 | 1007.1 |
| 20260506221337 | 68 | 191 | 2.0 | 2.0 | 0.00 | 0.24 | 0.24 | 90 | 1007.1 |
| 20260506220821 | 68 | 191 | 1.0 | 2.0 | 0.00 | 0.24 | 0.24 | 90 | 1007.1 |
| 20260506220348 | 68 | 191 | 0.0 | 2.0 | 0.01 | 0.24 | 0.24 | 90 | 1006.9 |
| 20260506215831 | 68 | 191 | 0.0 | 1.0 | 0.01 | 0.24 | 0.24 | 90 | 1006.8 |
| 20260506215332 | 67 | 191 | 0.0 | 2.0 | 0.01 | 0.24 | 0.24 | 90 | 1006.7 |
| 20260506214836 | 67 | 191 | 1.0 | 3.0 | 0.02 | 0.24 | 0.24 | 90 | 1006.9 |
| 20260506214339 | 68 | 191 | 1.0 | 4.0 | 0.02 | 0.24 | 0.24 | 90 | 1006.9 |
| 20260506213843 | 68 | 196 | 1.0 | 3.0 | 0.02 | 0.24 | 0.24 | 90 | 1006.8 |
| 20260506213326 | 68 | 205 | 1.0 | 3.0 | 0.02 | 0.24 | 0.24 | 89 | 1006.8 |
| 20260506212834 | 68 | 212 | 0.0 | 3.0 | 0.02 | 0.24 | 0.24 | 89 | 1006.7 |
| 20260506212336 | 68 | 212 | 1.0 | 5.0 | 0.02 | 0.24 | 0.24 | 89 | 1006.4 |
| 20260506211903 | 68 | 186 | 1.0 | 6.0 | 0.02 | 0.24 | 0.24 | 89 | 1006.3 |
| 20260506211326 | 68 | 192 | 3.0 | 6.0 | 0.02 | 0.24 | 0.24 | 89 | 1006.3 |
| 20260506210829 | 68 | 184 | 2.0 | 5.0 | 0.02 | 0.24 | 0.24 | 88 | 1006.3 |
| 20260506210333 | 69 | 195 | 2.0 | 4.0 | 0.01 | 0.23 | 0.23 | 88 | 1006.2 |
| 20260506205836 | 69 | 196 | 2.0 | 3.0 | 0.01 | 0.23 | 0.23 | 87 | 1006.1 |
| 20260506205339 | 69 | 196 | 2.0 | 3.0 | 0.01 | 0.23 | 0.23 | 86 | 1006.1 |
| 20260506204842 | 69 | 196 | 0.0 | 4.0 | 0.00 | 0.22 | 0.22 | 86 | 1006.1 |
| 20260506204326 | 70 | 196 | 1.0 | 5.0 | 0.00 | 0.22 | 0.22 | 85 | 1006.0 |
| 20260506203834 | 70 | 196 | 3.0 | 5.0 | 0.00 | 0.22 | 0.22 | 84 | 1006.0 |
| 20260506203324 | 70 | 202 | 1.0 | 3.0 | 0.00 | 0.22 | 0.22 | 85 | 1005.9 |
| 20260506202828 | 70 | 202 | 1.0 | 5.0 | 0.00 | 0.22 | 0.22 | 85 | 1006.0 |
| 20260506202330 | 70 | 202 | 3.0 | 5.0 | 0.00 | 0.22 | 0.22 | 84 | 1005.8 |
| 20260506201834 | 70 | 193 | 2.0 | 6.0 | 0.00 | 0.22 | 0.22 | 84 | 1005.7 |
| 20260506201341 | 70 | 188 | 2.0 | 6.0 | 0.00 | 0.22 | 0.22 | 85 | 1005.7 |
| 20260506200825 | 70 | 189 | 2.0 | 6.0 | 0.00 | 0.22 | 0.22 | 84 | 1005.7 |
| 20260506200328 | 70 | 212 | 2.0 | 6.0 | 0.00 | 0.22 | 0.22 | 85 | 1005.9 |
| 20260506195833 | 71 | 204 | 3.0 | 6.0 | 0.00 | 0.22 | 0.22 | 84 | 1005.8 |
| 20260506195339 | 71 | 185 | 2.0 | 5.0 | 0.00 | 0.22 | 0.22 | 84 | 1005.9 |
| 20260506194842 | 71 | 194 | 2.0 | 5.0 | 0.00 | 0.22 | 0.22 | 84 | 1005.8 |
| 20260506194346 | 70 | 233 | 1.0 | 5.0 | 0.00 | 0.22 | 0.22 | 86 | 1006.0 |
| 20260506193831 | 70 | 246 | 2.0 | 5.0 | 0.00 | 0.22 | 0.22 | 85 | 1006.0 |
| 20260506193339 | 70 | 189 | 2.0 | 5.0 | 0.00 | 0.22 | 0.22 | 85 | 1005.9 |
| 20260506192842 | 70 | 189 | 2.0 | 5.0 | 0.00 | 0.22 | 0.22 | 84 | 1005.9 |
| 20260506192325 | 70 | 225 | 2.0 | 4.0 | 0.00 | 0.22 | 0.22 | 85 | 1006.0 |
| 20260506191828 | 70 | 263 | 2.0 | 5.0 | 0.00 | 0.22 | 0.22 | 86 | 1006.0 |
| 20260506191332 | 70 | 343 | 2.0 | 6.0 | 0.00 | 0.22 | 0.22 | 86 | 1005.9 |
| 20260506190836 | 70 | 230 | 3.0 | 7.0 | 0.00 | 0.22 | 0.22 | 87 | 1005.9 |
| 20260506190339 | 70 | 232 | 2.0 | 7.0 | 0.00 | 0.22 | 0.22 | 88 | 1005.9 |
| 20260506185843 | 69 | 219 | 1.0 | 7.0 | 0.00 | 0.22 | 0.22 | 89 | 1005.8 |
| 20260506185325 | 69 | 174 | 3.0 | 7.0 | 0.00 | 0.22 | 0.22 | 90 | 1006.0 |
| 20260506184829 | 68 | 181 | 4.0 | 7.0 | 0.00 | 0.22 | 0.22 | 90 | 1006.0 |
| 20260506184333 | 68 | 199 | 2.0 | 7.0 | 0.00 | 0.22 | 0.22 | 90 | 1006.1 |
| 20260506183840 | 68 | 250 | 2.0 | 7.0 | 0.01 | 0.22 | 0.22 | 90 | 1006.4 |
| 20260506183324 | 68 | 191 | 4.0 | 7.0 | 0.01 | 0.22 | 0.22 | 90 | 1006.4 |
| 20260506182847 | 67 | 206 | 2.0 | 7.0 | 0.01 | 0.22 | 0.22 | 90 | 1006.3 |
| 20260506182350 | 67 | 193 | 3.0 | 7.0 | 0.01 | 0.22 | 0.22 | 90 | 1006.4 |
| 20260506181835 | 67 | 196 | 3.0 | 9.0 | 0.01 | 0.22 | 0.22 | 90 | 1006.4 |
| 20260506181359 | 68 | 190 | 4.0 | 9.0 | 0.01 | 0.22 | 0.22 | 90 | 1006.5 |
| 20260506180842 | 68 | 186 | 0.0 | 4.0 | 0.01 | 0.22 | 0.22 | 90 | 1006.6 |
| 20260506180325 | 68 | 192 | 2.0 | 6.0 | 0.01 | 0.22 | 0.22 | 90 | 1006.5 |
| 20260506175849 | 68 | 200 | 1.0 | 6.0 | 0.01 | 0.22 | 0.22 | 89 | 1006.4 |
| 20260506175350 | 68 | 205 | 1.0 | 4.0 | 0.01 | 0.22 | 0.22 | 89 | 1006.4 |
| 20260506174833 | 68 | 244 | 2.0 | 4.0 | 0.01 | 0.22 | 0.22 | 88 | 1006.4 |
| 20260506174336 | 68 | 238 | 2.0 | 5.0 | 0.01 | 0.22 | 0.22 | 86 | 1006.5 |
| 20260506173821 | 68 | 242 | 2.0 | 5.0 | 0.00 | 0.21 | 0.21 | 85 | 1006.4 |
| 20260506173347 | 69 | 196 | 1.0 | 5.0 | 0.00 | 0.21 | 0.21 | 85 | 1006.3 |
| 20260506172830 | 69 | 196 | 1.0 | 5.0 | 0.00 | 0.21 | 0.21 | 84 | 1006.2 |
| 20260506172353 | 69 | 184 | 2.0 | 5.0 | 0.00 | 0.21 | 0.21 | 84 | 1006.2 |
| 20260506171836 | 68 | 206 | 3.0 | 5.0 | 0.00 | 0.21 | 0.21 | 84 | 1006.1 |
| 20260506171327 | 68 | 198 | 2.0 | 5.0 | 0.00 | 0.21 | 0.21 | 84 | 1006.1 |
| 20260506170831 | 68 | 198 | 1.0 | 5.0 | 0.00 | 0.21 | 0.21 | 84 | 1006.2 |
| 20260506170354 | 68 | 227 | 0.0 | 5.0 | 0.00 | 0.21 | 0.21 | 85 | 1006.2 |
| 20260506165836 | 68 | 194 | 2.0 | 7.0 | 0.00 | 0.21 | 0.21 | 85 | 1006.1 |
| 20260506165358 | 68 | 217 | 4.0 | 10.0 | 0.00 | 0.21 | 0.21 | 85 | 1006.1 |
| 20260506164841 | 68 | 198 | 6.0 | 10.0 | 0.00 | 0.21 | 0.21 | 85 | 1006.1 |
| 20260506164324 | 68 | 199 | 2.0 | 11.0 | 0.00 | 0.21 | 0.21 | 85 | 1006.2 |
| 20260506163828 | 67 | 223 | 4.0 | 11.0 | 0.00 | 0.21 | 0.21 | 85 | 1006.2 |
| 20260506163331 | 67 | 215 | 3.0 | 11.0 | 0.00 | 0.21 | 0.21 | 87 | 1006.3 |
| 20260506162856 | 67 | 213 | 4.0 | 13.0 | 0.00 | 0.21 | 0.21 | 87 | 1006.2 |
| 20260506162321 | 67 | 194 | 4.0 | 13.0 | 0.00 | 0.21 | 0.21 | 87 | 1006.2 |
| 20260506161828 | 67 | 200 | 3.0 | 10.0 | 0.00 | 0.21 | 0.21 | 88 | 1006.2 |
| 20260506161332 | 67 | 191 | 5.0 | 11.0 | 0.00 | 0.21 | 0.21 | 88 | 1006.2 |
| 20260506160839 | 67 | 197 | 3.0 | 7.0 | 0.00 | 0.21 | 0.21 | 89 | 1006.0 |
| 20260506160403 | 66 | 212 | 4.0 | 10.0 | 0.00 | 0.21 | 0.21 | 90 | 1006.0 |
| 20260506155825 | 66 | 178 | 5.0 | 11.0 | 0.00 | 0.21 | 0.21 | 90 | 1006.1 |
| 20260506155348 | 65 | 180 | 4.0 | 11.0 | 0.00 | 0.21 | 0.21 | 90 | 1006.2 |
| 20260506154831 | 65 | 193 | 5.0 | 11.0 | 0.00 | 0.21 | 0.21 | 90 | 1006.2 |
| 20260506154335 | 65 | 167 | 5.0 | 11.0 | 0.00 | 0.21 | 0.21 | 91 | 1006.2 |
| 20260506153842 | 65 | 192 | 4.0 | 10.0 | 0.00 | 0.21 | 0.21 | 91 | 1006.3 |
| 20260506153325 | 64 | 205 | 5.0 | 12.0 | 0.00 | 0.21 | 0.21 | 91 | 1006.3 |
| 20260506152829 | 64 | 178 | 5.0 | 12.0 | 0.00 | 0.21 | 0.21 | 91 | 1006.3 |
| 20260506152331 | 64 | 214 | 4.0 | 12.0 | 0.01 | 0.21 | 0.21 | 91 | 1006.1 |
| 20260506151835 | 65 | 206 | 5.0 | 11.0 | 0.02 | 0.21 | 0.21 | 91 | 1006.1 |
| 20260506151359 | 65 | 196 | 6.0 | 11.0 | 0.02 | 0.21 | 0.21 | 91 | 1006.1 |
| 20260506150841 | 65 | 188 | 3.0 | 13.0 | 0.03 | 0.21 | 0.21 | 92 | 1006.0 |
| 20260506150328 | 65 | 178 | 5.0 | 13.0 | 0.03 | 0.21 | 0.21 | 92 | 1006.2 |
| 20260506145832 | 65 | 246 | 5.0 | 12.0 | 0.04 | 0.21 | 0.21 | 93 | 1006.1 |
| 20260506145335 | 64 | 167 | 3.0 | 10.0 | 0.05 | 0.21 | 0.21 | 92 | 1006.1 |
| 20260506144839 | 64 | 196 | 4.0 | 10.0 | 0.06 | 0.21 | 0.21 | 92 | 1006.0 |
| 20260506144402 | 64 | 212 | 3.0 | 7.0 | 0.07 | 0.21 | 0.21 | 92 | 1006.0 |
| 20260506143824 | 64 | 200 | 2.0 | 5.0 | 0.07 | 0.21 | 0.21 | 92 | 1006.2 |
| 20260506143328 | 63 | 165 | 2.0 | 6.0 | 0.08 | 0.21 | 0.21 | 92 | 1006.2 |
| 20260506142831 | 63 | 194 | 3.0 | 6.0 | 0.09 | 0.21 | 0.21 | 92 | 1006.2 |
| 20260506142334 | 63 | 182 | 2.0 | 7.0 | 0.09 | 0.20 | 0.20 | 92 | 1006.2 |
| 20260506141901 | 63 | 175 | 3.0 | 11.0 | 0.09 | 0.20 | 0.20 | 91 | 1006.7 |
| 20260506141403 | 63 | 194 | 5.0 | 11.0 | 0.08 | 0.19 | 0.19 | 91 | 1006.7 |
| 20260506140826 | 63 | 180 | 3.0 | 10.0 | 0.07 | 0.18 | 0.18 | 91 | 1006.9 |
| 20260506140329 | 63 | 201 | 5.0 | 10.0 | 0.08 | 0.18 | 0.18 | 91 | 1007.1 |
| 20260506135856 | 63 | 219 | 6.0 | 11.0 | 0.07 | 0.17 | 0.17 | 91 | 1007.1 |
| 20260506135322 | 63 | 190 | 6.0 | 12.0 | 0.07 | 0.16 | 0.16 | 90 | 1007.2 |
| 20260506134829 | 63 | 165 | 6.0 | 16.0 | 0.07 | 0.15 | 0.15 | 90 | 1006.9 |
| 20260506134333 | 63 | 208 | 5.0 | 10.0 | 0.07 | 0.14 | 0.14 | 90 | 1006.8 |
| 20260506133836 | 63 | 191 | 4.0 | 10.0 | 0.07 | 0.14 | 0.14 | 90 | 1006.8 |
| 20260506133320 | 63 | 225 | 5.0 | 11.0 | 0.07 | 0.13 | 0.13 | 90 | 1006.7 |
| 20260506132827 | 63 | 190 | 5.0 | 11.0 | 0.06 | 0.12 | 0.12 | 90 | 1006.6 |
| 20260506132330 | 63 | 180 | 2.0 | 11.0 | 0.05 | 0.11 | 0.11 | 90 | 1006.5 |
| 20260506131834 | 63 | 211 | 4.0 | 11.0 | 0.05 | 0.11 | 0.11 | 90 | 1006.7 |
| 20260506131357 | 63 | 201 | 6.0 | 11.0 | 0.06 | 0.11 | 0.11 | 90 | 1006.9 |
| 20260506130840 | 63 | 187 | 6.0 | 11.0 | 0.06 | 0.11 | 0.11 | 90 | 1006.7 |
| 20260506130403 | 63 | 198 | 5.0 | 11.0 | 0.05 | 0.10 | 0.10 | 89 | 1006.6 |
| 20260506125846 | 63 | 154 | 5.0 | 10.0 | 0.05 | 0.10 | 0.10 | 89 | 1006.6 |
| 20260506125327 | 63 | 162 | 6.0 | 11.0 | 0.05 | 0.09 | 0.09 | 88 | 1006.7 |
| 20260506124831 | 63 | 194 | 6.0 | 11.0 | 0.04 | 0.08 | 0.08 | 88 | 1006.6 |
| 20260506124339 | 63 | 190 | 3.0 | 7.0 | 0.04 | 0.08 | 0.08 | 88 | 1006.6 |
| 20260506123826 | 63 | 187 | 3.0 | 8.0 | 0.03 | 0.07 | 0.07 | 88 | 1006.6 |
| 20260506123330 | 64 | 199 | 2.0 | 7.0 | 0.02 | 0.06 | 0.06 | 87 | 1006.5 |
| 20260506122834 | 64 | 208 | 3.0 | 9.0 | 0.03 | 0.06 | 0.06 | 87 | 1006.5 |
| 20260506122340 | 64 | 193 | 3.0 | 9.0 | 0.03 | 0.06 | 0.06 | 87 | 1006.4 |
| 20260506121824 | 64 | 195 | 3.0 | 5.0 | 0.03 | 0.06 | 0.06 | 86 | 1006.5 |
| 20260506121331 | 64 | 97 | 2.0 | 5.0 | 0.03 | 0.05 | 0.05 | 86 | 1006.5 |
| 20260506120838 | 64 | 185 | 3.0 | 5.0 | 0.03 | 0.05 | 0.05 | 88 | 1006.8 |
| 20260506120341 | 64 | 196 | 2.0 | 6.0 | 0.03 | 0.05 | 0.05 | 86 | 1006.8 |
| 20260506115825 | 63 | 185 | 3.0 | 6.0 | 0.03 | 0.05 | 0.05 | 86 | 1006.7 |
| 20260506115335 | 63 | 185 | 3.0 | 5.0 | 0.03 | 0.04 | 0.04 | 85 | 1006.8 |
| 20260506114839 | 63 | 174 | 2.0 | 5.0 | 0.03 | 0.04 | 0.04 | 85 | 1006.7 |
| 20260506114342 | 63 | 226 | 1.0 | 4.0 | 0.04 | 0.04 | 0.04 | 84 | 1006.9 |
| 20260506113826 | 63 | 170 | 2.0 | 4.0 | 0.04 | 0.04 | 0.04 | 84 | 1006.8 |
| 20260506113329 | 64 | 179 | 2.0 | 4.0 | 0.04 | 0.04 | 0.04 | 83 | 1006.8 |
| 20260506112853 | 64 | 163 | 1.0 | 4.0 | 0.03 | 0.03 | 0.03 | 83 | 1006.8 |
| 20260506112334 | 64 | 153 | 1.0 | 6.0 | 0.03 | 0.03 | 0.03 | 82 | 1006.9 |
| 20260506111839 | 64 | 192 | 3.0 | 6.0 | 0.03 | 0.03 | 0.03 | 81 | 1007.0 |
| 20260506111346 | 64 | 175 | 1.0 | 5.0 | 0.02 | 0.02 | 0.02 | 80 | 1006.9 |
| 20260506110828 | 64 | 191 | 2.0 | 7.0 | 0.02 | 0.02 | 0.02 | 79 | 1006.8 |
| 20260506110351 | 65 | 184 | 4.0 | 7.0 | 0.02 | 0.02 | 0.02 | 78 | 1006.8 |
| 20260506105838 | 65 | 181 | 3.0 | 10.0 | 0.02 | 0.02 | 0.02 | 77 | 1006.8 |
| 20260506105340 | 65 | 175 | 4.0 | 11.0 | 0.01 | 0.01 | 0.01 | 75 | 1006.5 |
| 20260506104828 | 66 | 180 | 4.0 | 12.0 | 0.01 | 0.01 | 0.01 | 73 | 1006.6 |
| 20260506104332 | 67 | 195 | 4.0 | 14.0 | 0.00 | 0.00 | 0.00 | 71 | 1006.6 |
| 20260506103859 | 67 | 223 | 5.0 | 14.0 | 0.00 | 0.00 | 0.00 | 68 | 1006.2 |
| 20260506103341 | 68 | 131 | 5.0 | 12.0 | 0.00 | 0.00 | 0.00 | 66 | 1006.0 |
| 20260506102825 | 68 | 132 | 5.0 | 10.0 | 0.00 | 0.00 | 0.00 | 66 | 1006.0 |
| 20260506102348 | 68 | 196 | 2.0 | 7.0 | 0.00 | 0.00 | 0.00 | 66 | 1006.0 |
| 20260506101834 | 68 | 198 | 4.0 | 6.0 | 0.00 | 0.00 | 0.00 | 65 | 1005.9 |
| 20260506101338 | 68 | 189 | 3.0 | 6.0 | 0.00 | 0.00 | 0.00 | 65 | 1005.8 |
| 20260506100841 | 68 | 187 | 3.0 | 6.0 | 0.00 | 0.00 | 0.00 | 63 | 1005.8 |
| 20260506100326 | 69 | 182 | 3.0 | 6.0 | 0.00 | 0.00 | 0.00 | 62 | 1005.7 |
| 20260506095832 | 69 | 179 | 2.0 | 9.0 | 0.00 | 0.00 | 0.00 | 61 | 1005.6 |
| 20260506095338 | 69 | 196 | 4.0 | 12.0 | 0.00 | 0.00 | 0.00 | 61 | 1005.6 |
| 20260506094901 | 69 | 184 | 4.0 | 12.0 | 0.00 | 0.00 | 0.00 | 61 | 1005.6 |
| 20260506094328 | 69 | 191 | 5.0 | 9.0 | 0.00 | 0.00 | 0.00 | 61 | 1005.6 |
| 20260506093831 | 69 | 188 | 5.0 | 9.0 | 0.00 | 0.00 | 0.00 | 61 | 1005.7 |
| 20260506093335 | 69 | 183 | 3.0 | 12.0 | 0.00 | 0.00 | 0.00 | 60 | 1005.7 |
| 20260506092859 | 69 | 200 | 5.0 | 12.0 | 0.00 | 0.00 | 0.00 | 60 | 1005.6 |
| 20260506092340 | 69 | 197 | 5.0 | 9.0 | 0.00 | 0.00 | 0.00 | 60 | 1005.7 |
| 20260506091904 | 69 | 168 | 3.0 | 9.0 | 0.00 | 0.00 | 0.00 | 60 | 1005.7 |
| 20260506091327 | 69 | 217 | 5.0 | 9.0 | 0.00 | 0.00 | 0.00 | 60 | 1005.8 |
| 20260506090830 | 69 | 213 | 4.0 | 7.0 | 0.00 | 0.00 | 0.00 | 60 | 1005.9 |
| 20260506090333 | 69 | 182 | 5.0 | 11.0 | 0.00 | 0.00 | 0.00 | 60 | 1005.8 |
| 20260506085857 | 69 | 227 | 4.0 | 11.0 | 0.00 | 0.00 | 0.00 | 59 | 1005.9 |
| 20260506085359 | 69 | 195 | 3.0 | 11.0 | 0.00 | 0.00 | 0.00 | 59 | 1005.9 |
| 20260506084841 | 70 | 187 | 5.0 | 10.0 | 0.00 | 0.00 | 0.00 | 59 | 1006.0 |
| 20260506084325 | 70 | 199 | 5.0 | 12.0 | 0.00 | 0.00 | 0.00 | 58 | 1006.1 |
| 20260506083828 | 70 | 186 | 6.0 | 11.0 | 0.00 | 0.00 | 0.00 | 58 | 1006.1 |
| 20260506083334 | 70 | 170 | 5.0 | 10.0 | 0.00 | 0.00 | 0.00 | 58 | 1006.1 |
| 20260506082842 | 70 | 196 | 4.0 | 9.0 | 0.00 | 0.00 | 0.00 | 57 | 1006.1 |
| 20260506082403 | 70 | 153 | 4.0 | 9.0 | 0.00 | 0.00 | 0.00 | 57 | 1006.2 |
| 20260506081845 | 70 | 194 | 5.0 | 9.0 | 0.00 | 0.00 | 0.00 | 57 | 1006.1 |
| 20260506081327 | 70 | 188 | 4.0 | 10.0 | 0.00 | 0.00 | 0.00 | 57 | 1006.2 |
| 20260506080831 | 70 | 200 | 6.0 | 10.0 | 0.00 | 0.00 | 0.00 | 57 | 1006.2 |
| 20260506080354 | 70 | 187 | 3.0 | 10.0 | 0.00 | 0.00 | 0.00 | 57 | 1006.2 |
| 20260506073335 | 70 | 189 | 2.0 | 6.0 | 0.00 | 0.00 | 0.00 | 55 | 1005.9 |
| 20260506072838 | 70 | 182 | 4.0 | 6.0 | 0.00 | 0.00 | 0.00 | 54 | 1006.0 |
| 20260506072341 | 70 | 209 | 1.0 | 6.0 | 0.00 | 0.00 | 0.00 | 55 | 1005.9 |
| 20260506071829 | 70 | 207 | 2.0 | 6.0 | 0.00 | 0.00 | 0.00 | 54 | 1006.1 |
| 20260506071332 | 70 | 196 | 1.0 | 3.0 | 0.00 | 0.00 | 0.00 | 54 | 1006.0 |
| 20260506070856 | 71 | 182 | 1.0 | 4.0 | 0.00 | 0.00 | 0.00 | 53 | 1006.1 |